Hourly Data Report for July 14, 2021

WINNIPEG THE FORKS
MANITOBA
Current Station Operator: ECCC - MSC

49°53'18.008" N
97°07'46.007" W
230.00 m
5023262
71579
XWN

Download Data

Hourly Data (July 2021)
Hourly Data Report for July 14, 2021
TIME
LST
Temp Definition
°C
Dew Point Definition
°C
Rel Hum Definition
%
Precip. Amount Definition
mm

Wind Dir Definition
10's deg

Wind Spd Definition
km/h
Visibility Definition
km
Stn Press Definition
kPa
Hmdx Definition


Wind Chill Definition


Weather Definition


00:00 18.5 8.7 53 0.0 4 2   99.03     LegendNANA
01:00 18.2 8.2 52 0.0 3 2   99.04     LegendNANA
02:00 18.3 8.8 54 0.0 1 2   99.04     LegendNANA
03:00 18.0 8.9 55 0.0 0 1   99.07     LegendNANA
04:00 16.7 9.1 61 0.0 2 2   99.08     LegendNANA
05:00 15.9 9.7 67 0.0   0   99.06     LegendNANA
06:00 17.7 10.1 61 0.0 23 3   99.13     LegendNANA
07:00 19.4 10.0 55 0.0 2 3   99.11     LegendNANA
08:00 20.7 11.1 54 0.0 3 3   99.12     LegendNANA
09:00 21.8 10.7 49 0.0 36 2   99.13     LegendNANA
10:00 24.0 9.9 41 0.0 32 3   99.09 25   LegendNANA
11:00 25.3 9.9 38 0.0 34 3   99.06 27   LegendNANA
12:00 26.7 9.7 34 0.0 32 5   99.00 28   LegendNANA
13:00 25.1 10.3 39 0.0 4 3   98.96 27   LegendNANA
14:00 26.2 10.1 36 0.0 4 4   98.91 28   LegendNANA
15:00 26.4 8.6 32 0.0 4 6   98.86 27   LegendNANA
16:00 26.7 9.4 34 0.0 5 3   98.83 28   LegendNANA
17:00 26.9 8.5 31 0.0 4 3   98.78 28   LegendNANA
18:00 27.8 8.1 29 0.0 5 4   98.75 28   LegendNANA
19:00 27.1 8.0 30 0.0 7 6   98.78 28   LegendNANA
20:00 25.0 7.6 33 0.0 8 3   98.78 25   LegendNANA
21:00 24.1 7.3 34 0.0 11 3   98.80     LegendNANA
22:00 23.1 7.9 38 0.0 14 1   98.82     LegendNANA
23:00 22.7 11.1 48 0.0 20 3   98.81 25   LegendNANA

Notes on Data Quality.

Legend

  • E = Estimated
  • M = Missing
  • NA = Not Available*
  • [empty] = Indicates an unobserved value
Date modified: